User: anonymous   Login
Location: Slanting_Bridge
(35.6330°N, 80.9830°W)
Time: 17:58:35
(UTC-04:00)
Language:

Hamsat - Orbit

View from above orbital plane
View from above orbital plane
View from above satellite
View from above satellite

Ground track
Ground track

The orbit data is extracted from the following two-line orbital elements,

1 28650U 05017B   15216.04848535  .00000938  00000-0  10870-3 0  9995
2 28650 097.5777 206.3550 0022761 230.8434 129.0761 14.87545883554562
Epoch (UTC): 04 August 2015 01:09:49
Eccentricity: 0.0022761
inclination: 97.5777°
perigee height: 590 km
apogee height: 621 km
right ascension of ascending node: 206.3550°
argument of perigee: 230.8434°
revolutions per day: 14.87545883
mean anomaly at epoch: 129.0761°
orbit number at epoch: 55456

The dashed part of the orbit path shows where the satellite is in the earth's shadow,  

DLR